DW9064 Weather Reports


time (UTC)temp
C
wind
direction
speed
KPH
gust
KPH
rain 1hr
cm
rain 24hr
cm
rain mn
cm
humidity
%
barometer
mb
20260508160608 14 136 3.2 9.7 0.00 0.00 0.00 53 1029.4
20260508155708 14 98 3.2 6.4 0.00 0.00 0.00 54 1029.5
20260508154808 14 84 1.6 8.0 0.00 0.00 0.00 56 1029.4
20260508153908 14 62 0.0 9.7 0.00 0.00 0.00 55 1029.4
20260508153014 13 61 3.2 9.7 0.00 0.00 0.00 60 1029.3
20260508152108 13 87 3.2 11.3 0.00 0.00 0.00 60 1029.5
20260508151208 13 69 4.8 11.3 0.00 0.00 0.00 63 1029.6
20260508150308 12 85 3.2 6.4 0.00 0.00 0.00 67 1029.6
20260508144508 11 89 4.8 9.7 0.00 0.00 0.00 68 1029.7
20260508143607 11 97 1.6 11.3 0.00 0.00 0.00 72 1029.7
20260508142708 10 101 3.2 8.0 0.00 0.00 0.00 74 1029.7
20260508141807 10 97 3.2 8.0 0.00 0.00 0.00 76 1029.7
20260508140014 9 64 0.0 4.8 0.00 0.00 0.00 82 1029.7
20260508134207 7 344 1.6 6.4 0.00 0.00 0.00 86 1029.8
20260508133308 6 327 3.2 8.0 0.00 0.00 0.00 87 1029.7
20260508132407 6 344 4.8 9.7 0.00 0.00 0.00 86 1029.6
20260508131507 6 346 4.8 9.7 0.00 0.00 0.00 87 1029.6
20260508130607 6 339 6.4 9.7 0.00 0.00 0.00 87 1029.4
20260508125707 6 340 6.4 9.7 0.00 0.00 0.00 86 1029.4
20260508124807 5 328 6.4 9.7 0.00 0.00 0.00 86 1029.3
20260508123907 5 345 6.4 9.7 0.00 0.00 0.00 85 1029.4
20260508123014 6 353 4.8 9.7 0.00 0.00 0.00 86 1029.4
20260508122107 5 354 4.8 9.7 0.00 0.00 0.00 86 1029.3
20260508121207 6 338 6.4 9.7 0.00 0.00 0.00 85 1029.3
20260508120307 6 340 6.4 9.7 0.00 0.00 0.00 85 1029.4
20260508115407 6 337 6.4 9.7 0.00 0.00 0.00 86 1029.4
20260508113607 6 354 6.4 9.7 0.00 0.00 0.00 86 1029.2
20260508112707 6 333 6.4 9.7 0.00 0.00 0.00 86 1029.2
20260508111807 6 330 6.4 11.3 0.00 0.00 0.00 87 1029.1
20260508110907 6 323 6.4 9.7 0.00 0.00 0.00 86 1029.1
20260508110013 6 324 6.4 11.3 0.00 0.00 0.00 86 1029.1
20260508104207 6 319 8.0 11.3 0.00 0.00 0.00 85 1029.0
20260508103307 6 326 6.4 12.9 0.00 0.00 0.00 84 1029.0
20260508101507 7 331 8.0 12.9 0.00 0.00 0.00 82 1028.8
20260508100607 7 329 6.4 12.9 0.00 0.00 0.00 83 1028.7
20260508095707 7 323 6.4 12.9 0.00 0.00 0.00 84 1028.7
20260508093907 7 322 8.0 12.9 0.00 0.00 0.00 84 1028.5
20260508093007 7 338 8.0 12.9 0.00 0.00 0.00 83 1028.5
20260508092107 7 340 4.8 12.9 0.00 0.00 0.00 83 1028.6
20260508091207 8 328 8.0 12.9 0.00 0.00 0.00 83 1028.6
20260508090307 8 324 8.0 12.9 0.00 0.00 0.00 83 1028.6
20260508085407 8 325 6.4 12.9 0.00 0.00 0.00 83 1028.6
20260508084507 8 340 8.0 14.5 0.00 0.00 0.00 82 1028.5
20260508083607 8 325 8.0 11.3 0.00 0.00 0.00 81 1028.4
20260508082707 9 323 8.0 12.9 0.00 0.00 0.00 81 1028.5
20260508081807 9 325 6.4 12.9 0.00 0.00 0.00 83 1028.4
20260508080907 9 320 8.0 12.9 0.00 0.00 0.00 82 1028.3
20260508080007 9 321 8.0 12.9 0.00 0.00 0.00 82 1028.3
20260508075107 9 326 8.0 12.9 0.00 0.00 0.00 82 1028.3
20260508074208 9 324 8.0 12.9 0.00 0.00 0.00 81 1028.1
20260508072407 10 331 9.7 12.9 0.00 0.00 0.00 82 1028.0
20260508071506 10 316 9.7 12.9 0.00 0.00 0.00 82 1027.8
20260508070606 10 314 9.7 12.9 0.00 0.00 0.00 81 1027.7
20260508065706 10 323 9.7 12.9 0.00 0.00 0.00 79 1027.6
20260508064807 10 325 9.7 14.5 0.00 0.00 0.00 79 1027.4
20260508063906 10 314 9.7 14.5 0.00 0.00 0.00 79 1027.3
20260508063006 11 315 11.3 12.9 0.00 0.00 0.00 79 1027.2
20260508062106 11 319 8.0 14.5 0.00 0.00 0.00 78 1027.2
20260508060306 11 317 11.3 12.9 0.00 0.00 0.00 78 1027.1
20260508055406 11 314 11.3 14.5 0.00 0.00 0.00 77 1026.9
20260508054506 11 322 12.9 14.5 0.00 0.00 0.00 77 1026.8
20260508053607 11 314 9.7 12.9 0.00 0.00 0.00 76 1026.8
20260508052707 12 314 9.7 16.1 0.00 0.00 0.00 73 1026.5
20260508051806 12 314 12.9 16.1 0.00 0.00 0.00 73 1026.4
20260508050907 12 314 12.9 16.1 0.00 0.00 0.00 74 1026.5
20260508050006 12 322 12.9 12.9 0.00 0.00 0.00 73 1026.3
20260508044206 13 316 12.9 17.7 0.00 0.00 0.00 73 1026.3
20260508043306 13 319 12.9 17.7 0.00 0.00 0.00 73 1026.0
20260508041506 13 314 12.9 16.1 0.00 0.00 0.00 71 1025.9
20260508040606 13 314 11.3 14.5 0.00 0.00 0.00 69 1026.0
20260508035706 14 335 9.7 14.5 0.00 0.00 0.00 66 1025.9
20260508034806 14 314 11.3 17.7 0.00 0.00 0.00 68 1025.5
20260508033906 14 316 11.3 14.5 0.00 0.00 0.00 67 1025.4
20260508033006 15 317 9.7 17.7 0.00 0.00 0.00 65 1025.3
20260508032106 15 319 12.9 16.1 0.00 0.00 0.00 63 1025.2
20260508031206 16 301 9.7 14.5 0.00 0.00 0.00 61 1025.4
20260508030306 17 305 9.7 19.3 0.00 0.00 0.00 56 1025.1
20260508025406 17 289 8.0 19.3 0.00 0.00 0.00 55 1025.1
20260508024506 17 309 6.4 17.7 0.00 0.00 0.00 56 1025.0
20260508023606 18 300 8.0 17.7 0.00 0.00 0.00 51 1025.0
20260508021806 18 304 9.7 19.3 0.00 0.00 0.00 47 1024.9
20260508020906 18 295 8.0 19.3 0.00 0.00 0.00 44 1025.0
20260508020006 18 308 6.4 12.9 0.00 0.00 0.00 50 1024.9
20260508015106 20 314 6.4 12.9 0.00 0.00 0.00 44 1024.9
20260508014206 20 313 9.7 16.1 0.00 0.00 0.00 39 1024.9
20260508013306 21 322 6.4 12.9 0.00 0.00 0.00 37 1025.0
20260508012406 22 273 6.4 16.1 0.00 0.00 0.00 30 1024.9
20260508011506 23 244 6.4 17.7 0.00 0.00 0.00 23 1025.0
20260508010606 25 220 8.0 20.9 0.00 0.00 0.00 17 1025.1
20260508005706 25 231 6.4 20.9 0.00 0.00 0.00 16 1025.0
20260508003006 26 196 11.3 24.1 0.00 0.00 0.00 10 1025.1
20260508002106 27 208 8.0 22.5 0.00 0.00 0.00 10 1025.2
20260508001206 27 217 11.3 25.7 0.00 0.00 0.00 10 1025.1
20260507235406 27 199 12.9 24.1 0.00 0.00 0.00 10 1025.0
20260507234506 27 211 11.3 20.9 0.00 0.00 0.00 10 1025.2
20260507233606 27 175 8.0 20.9 0.00 0.00 0.00 10 1025.1
20260507231806 27 197 11.3 27.4 0.00 0.00 0.00 10 1025.1
20260507230906 27 202 16.1 24.1 0.00 0.00 0.00 10 1025.2
20260507230006 27 182 8.0 24.1 0.00 0.00 0.00 10 1025.4
20260507225106 27 190 8.0 24.1 0.00 0.00 0.00 10 1025.4
20260507223306 27 186 16.1 24.1 0.00 0.00 0.00 10 1025.6
20260507222405 27 189 12.9 20.9 0.00 0.00 0.00 10 1025.7
20260507220607 27 184 14.5 38.6 0.00 0.00 0.00 10 1025.8
20260507215705 27 207 24.1 38.6 0.00 0.00 0.00 10 1025.8
20260507214805 28 181 6.4 27.4 0.00 0.00 0.00 10 1025.9
20260507213906 28 167 14.5 29.0 0.00 0.00 0.00 10 1026.0
20260507213006 27 175 6.4 29.0 0.00 0.00 0.00 10 1026.1
20260507212105 27 193 9.7 22.5 0.00 0.00 0.00 10 1026.2
20260507204505 27 186 9.7 37.0 0.00 0.00 0.00 10 1026.5
20260507203605 26 195 22.5 43.5 0.00 0.00 0.00 10 1026.5
20260507202705 26 185 22.5 43.5 0.00 0.00 0.00 10 1026.6
20260507201805 26 186 17.7 27.4 0.00 0.00 0.00 10 1026.7
20260507200905 26 184 8.0 25.7 0.00 0.00 0.00 13 1027.0
20260507200005 25 162 4.8 19.3 0.00 0.00 0.00 16 1027.1
20260507193305 25 215 4.8 17.7 0.00 0.00 0.00 22 1027.5
20260507191505 24 195 8.0 17.7 0.00 0.00 0.00 22 1027.7
20260507190605 24 192 12.9 17.7 0.00 0.00 0.00 24 1027.7
20260507185705 23 188 11.3 19.3 0.00 0.00 0.00 23 1027.9
20260507184805 23 190 9.7 20.9 0.00 0.00 0.00 25 1028.0
20260507183905 22 174 9.7 19.3 0.00 0.00 0.00 28 1028.0
20260507182105 22 176 12.9 17.7 0.00 0.00 0.00 32 1028.2
20260507181205 21 179 3.2 16.1 0.00 0.00 0.00 33 1028.4
20260507180305 21 170 6.4 14.5 0.00 0.00 0.00 39 1028.6
20260507175405 21 166 4.8 8.0 0.00 0.00 0.00 41 1028.5
20260507174505 21 166 3.2 9.7 0.00 0.00 0.00 38 1028.6
20260507172705 20 127 3.2 12.9 0.00 0.00 0.00 46 1028.6
20260507171805 19 129 3.2 12.9 0.00 0.00 0.00 47 1028.6
20260507170905 20 89 3.2 11.3 0.00 0.00 0.00 46 1028.9
20260507170005 19 119 1.6 11.3 0.00 0.00 0.00 49 1029.1
20260507165105 18 129 3.2 12.9 0.00 0.00 0.00 52 1029.1
20260507164205 18 107 1.6 9.7 0.00 0.00 0.00 53 1029.4
20260507163305 17 124 6.4 12.9 0.00 0.00 0.00 52 1029.4